Skip Page Navigation
NASA JPL Caltech
NASA Logo - Jet Propulsion Laboratory + View the NASA Portal
+ Center for Near-Earth Object Studies
JPL Home Earth Solar System Stars & Galaxies Technology
JPL Solar System Dynamics
BODIES ORBITS EPHEMERIDES TOOLS PHYSICAL DATA DISCOVERY FAQ SITE MAP
IMPORTANT: The SSD Announcement email list is now available. Major changes are coming in the near future, including possible hostname and/or URL changes. To be notified of such changes, subscribe to this email list.

Please visit this page for more details.


JPL Small-Body Database Browser
Search: [ help ]  
4134 Schutz (1961 CR)
Classification: Main-belt Asteroid          SPK-ID: 2004134
Ephemeris | Orbit Diagram | Orbital Elements | Mission Design | Physical Parameters | Discovery Circumstances ]

[ show orbit diagram ]
Orbital Elements at Epoch 2458600.5 (2019-Apr-27.0) TDB
Reference: JPL 26 (heliocentric ecliptic J2000)
 Element Value Uncertainty (1-sigma)   Units 
e .097269044964817 3.4073e-08  
a 2.30156188628747 7.459e-09 au
q 2.077691159680865 7.7965e-08 au
i 4.182031736097565 3.3586e-06 deg
node 135.1063262459114 5.1486e-05 deg
peri 77.73304859258823 5.4426e-05 deg
M 172.8022624000648 1.7397e-05 deg
tp 2457988.319719780568
(2017-Aug-22.81971978)
6.1227e-05 TDB
period 1275.3588860357
3.49
6.1998e-06
1.697e-08
d
yr
n .2822734870488234 1.3722e-09 deg/d
Q 2.525432612894075 8.1845e-09 au
  Orbit Determination Parameters
   # obs. used (total)      2011  
   data-arc span      21169 days (57.96 yr)  
   first obs. used      1961-02-15  
   last obs. used      2019-01-31  
   planetary ephem.      DE431  
   SB-pert. ephem.      SB431-N16  
   condition code      0  
   norm. resid. RMS      .50511  
   source      ORB  
   producer      Otto Matic  
   solution date      2019-Jul-12 18:31:16  

Additional Information
 Earth MOID = 1.07662 au 
 Jupiter MOID = 2.443 au 
 T_jup = 3.581 
[ show covariance matrix ]

Ephemeris | Orbit Diagram | Orbital Elements | Mission Design | Physical Parameters | Discovery Circumstances ]

Physical Parameter Table
Parameter Symbol Value Units Sigma Reference Notes
absolute magnitude H 13.9   n/a MPO416755  
diameter diameter 4.051 km 0.058 urn:nasa:pds:neowise_diameters_albedos::2.0[mainbelt] (http://adsabs.harvard.edu/abs/2011ApJ...741...68M)  
rotation period rot_per 5.207 h n/a LCDB (Rev. 2019-January); Warner et al., 2009 Result based on less than full coverage, so that the period may be wrong by 30 percent or so.
Published Reference List:
[Waszczak, A.; Chang, C.-K.; Ofeck, E.O.; Laher, F.; et al. (2015) Astron. J. 150, A75.]
geometric albedo albedo 0.297   0.048 urn:nasa:pds:neowise_diameters_albedos::2.0[mainbelt] (http://adsabs.harvard.edu/abs/2011ApJ...741...68M)  

4134 Schutz (1961 CR)          Discovered 1961-Feb-15 by Borngen, F. at Tautenburg
Reference: DISCOVERY.DBLast Updated: 2003-08-29

Alternate Designations
 1961 CR = 1961 EG = 1979 HK5 
Ephemeris | Orbit Diagram | Orbital Elements | Mission Design | Physical Parameters | Discovery Circumstances ]
ABOUT SSD CREDITS/AWARDS PRIVACY/COPYRIGHT GLOSSARY LINKS
FirstGov 2019-Oct-21 01:21 UT
(server date/time)  
NASA Home Page
Site Manager:   Ryan S. Park
Webmaster  Alan B. Chamberlin